Location: Camp at the Woods
(43.2055°N, 93.0905°W)
Time: 00:33:55
(UTC+00:00)

Cosmos 2227 Rocket - Pass Details

Date: 26 May 2025
Orbit: 837 x 844 km, 71.0° (Epoch: 12 June)

Event Time Altitude Azimuth Distance (km) Brightness Sun altitude
Exits shadow 06:07:52 16° 101° (E) 2,084 4.1 -25.6°
Maximum altitude 06:08:07 16° 98° (E) 2,082 4.1 -25.6°
Drops below altitude 10° 06:11:19 10° 63° (ENE) 2,458 4.9 -25.6°
Sets 06:14:44 0° 42° (NE) 3,400 6.1 -25.6°
